Weather History for KEHO - May, 2014

Change the Weather History Date:

Saturday, May 17, 2014

  Actual Average (KHKY) Record (KHKY)
Temperature  
Mean Temperature 54 °F -  
Max Temperature 67 °F 76 °F 89 °F (1962)
Min Temperature 41 °F 54 °F 41 °F (1997)
Degree Days  
Heating Degree Days 11    
Growing Degree Days 4 (Base 50)    
Moisture  
Dew Point 42 °F    
Average Humidity 65    
Maximum Humidity 95    
Minimum Humidity 35    
Precipitation  
Precipitation 0.00 in - - ()
Sea Level Pressure  
Sea Level Pressure 30.16 in    
Wind  
Wind Speed 3 mph (SW)    
Max Wind Speed 14 mph    
Max Gust Speed 20 mph    
Visibility 10 miles    
Events      
Averages and records for this station are not official NWS values.
T = Trace of Precipitation, MM = Missing Value Source: NWS Daily Summary

Daily Weather History Graph

Daily Weather History Graph

Search for Another Location

Airport or City:

Trip Planner

Search our weather history database for the weather conditions in past years. The results will help you decide how hot, cold, wet, or windy it might be!

Date:

Astronomy

May. 17, 2014 Rise Set
Actual Time 6:20 AM EDT 8:25 PM EDT
Civil Twilight 5:52 AM EDT 8:53 PM EDT
Nautical Twilight 5:17 AM EDT 9:28 PM EDT
Astronomical Twilight 4:40 AM EDT 10:05 PM EDT
Moon 11:25 PM EDT (5/17) 9:01 AM EDT (5/17)
Length of Visible Light 15h 01m
Length of Day
14h 04m
Waning Gibbous, 89% of the Moon is Illuminated
May 17
Waning Gibbous
May 21
Last Quarter
May 28
New
Jun 5
First Quarter
Jun 13
Full

Hourly Weather History & Observations

Time (EDT) Temp. Dew Point Humidity Pressure Visibility Wind Dir Wind Speed Gust Speed Precip Events Conditions
12:15 AM 50.7 °F 39.4 °F 65% 30.12 in 10.0 mi Calm Calm - N/A   Clear
12:35 AM 52.0 °F 37.9 °F 59% 30.12 in 10.0 mi West 3.5 mph - N/A   Clear
12:55 AM 51.3 °F 39.2 °F 63% 30.12 in 10.0 mi Calm Calm - N/A   Clear
1:15 AM 46.8 °F 40.1 °F 78% 30.12 in 10.0 mi ENE 3.5 mph - N/A   Clear
1:35 AM 46.2 °F 41.2 °F 83% 30.12 in 10.0 mi Calm Calm - N/A   Clear
1:55 AM 46.0 °F 40.8 °F 82% 30.12 in 10.0 mi Calm Calm - N/A   Clear
2:15 AM 47.8 °F 39.6 °F 73% 30.11 in 10.0 mi Calm Calm - N/A   Clear
2:35 AM 47.7 °F 40.3 °F 76% 30.12 in 10.0 mi Calm Calm - N/A   Clear
2:55 AM 44.8 °F 40.6 °F 85% 30.12 in 10.0 mi Calm Calm - N/A   Clear
3:15 AM 44.1 °F 41.0 °F 89% 30.13 in 10.0 mi Calm Calm - N/A   Clear
3:35 AM 44.6 °F 41.0 °F 87% 30.13 in 10.0 mi Calm Calm - N/A   Clear
3:55 AM 43.0 °F 40.5 °F 91% 30.13 in 10.0 mi Calm Calm - N/A   Clear
4:15 AM 43.2 °F 41.0 °F 92% 30.13 in 10.0 mi Calm Calm - N/A   Clear
4:35 AM 42.8 °F 40.1 °F 90% 30.14 in 10.0 mi Calm Calm - N/A   Clear
4:55 AM 43.2 °F 40.8 °F 91% 30.14 in 10.0 mi Calm Calm - N/A   Clear
5:15 AM 41.5 °F 39.9 °F 94% 30.15 in 10.0 mi Calm Calm - N/A   Clear
5:35 AM 41.9 °F 40.5 °F 95% 30.16 in 10.0 mi Calm Calm - N/A   Clear
5:55 AM 41.4 °F 40.1 °F 95% 30.17 in 10.0 mi Calm Calm - N/A   Clear
6:15 AM 42.1 °F 40.5 °F 94% 30.17 in 10.0 mi Calm Calm - N/A   Clear
6:35 AM 42.8 °F 39.9 °F 90% 30.17 in 10.0 mi Calm Calm - N/A   Clear
6:55 AM 41.9 °F 39.2 °F 90% 30.17 in 10.0 mi Calm Calm - N/A   Clear
7:15 AM 41.4 °F 40.1 °F 95% 30.19 in 10.0 mi Calm Calm - N/A   Clear
7:35 AM 43.2 °F 41.9 °F 95% 30.18 in 10.0 mi Calm Calm - N/A   Clear
7:55 AM 44.2 °F 42.6 °F 94% 30.19 in 10.0 mi Calm Calm - N/A   Clear
8:15 AM 47.8 °F 41.5 °F 79% 30.18 in 10.0 mi Calm Calm - N/A   Clear
8:35 AM 49.5 °F 42.1 °F 76% 30.19 in 10.0 mi Calm Calm - N/A   Clear
9:15 AM 52.0 °F 42.4 °F 70% 30.21 in 10.0 mi WSW 3.5 mph - N/A   Clear
9:35 AM 53.8 °F 44.1 °F 70% 30.21 in 10.0 mi West 4.6 mph - N/A   Clear
9:55 AM 56.1 °F 43.2 °F 62% 30.20 in 10.0 mi SW 4.6 mph - N/A   Clear
10:20 AM 57.4 °F 41.0 °F 54% 30.19 in 10.0 mi SW 4.6 mph - N/A   Clear
10:35 AM 59.7 °F 41.0 °F 50% 30.20 in 10.0 mi WSW 8.1 mph - N/A   Clear
11:00 AM 61.2 °F 39.9 °F 46% 30.18 in 10.0 mi SSW 4.6 mph - N/A   Clear
11:15 AM 61.9 °F 39.6 °F 44% 30.17 in 10.0 mi WSW 6.9 mph - N/A   Clear
11:35 AM 63.5 °F 39.4 °F 41% 30.19 in 10.0 mi SW 12.7 mph 17.3 mph N/A   Clear
11:55 AM 64.6 °F 40.1 °F 41% 30.19 in 10.0 mi WSW 8.1 mph - N/A   Clear
12:15 PM 65.3 °F 39.7 °F 39% 30.17 in 10.0 mi WSW 11.5 mph 17.3 mph N/A   Clear
12:35 PM 64.9 °F 39.0 °F 39% 30.16 in 10.0 mi SW 8.1 mph - N/A   Clear
12:55 PM 66.2 °F 40.5 °F 39% 30.17 in 10.0 mi SW 10.4 mph - N/A   Clear
1:15 PM 65.8 °F 37.6 °F 35% 30.17 in 10.0 mi South 10.4 mph 18.4 mph N/A   Clear
1:35 PM 66.2 °F 39.4 °F 37% 30.17 in 10.0 mi SW 10.4 mph - N/A   Clear
1:55 PM 65.7 °F 39.2 °F 38% 30.17 in 10.0 mi SSW 8.1 mph - N/A   Clear
2:15 PM 67.1 °F 40.5 °F 38% 30.17 in 10.0 mi SW 11.5 mph - N/A   Clear
2:35 PM 67.3 °F 40.3 °F 37% 30.16 in 10.0 mi WSW 10.4 mph - N/A   Clear
2:55 PM 66.9 °F 41.4 °F 39% 30.16 in 10.0 mi SW 11.5 mph 16.1 mph N/A   Clear
3:15 PM 66.6 °F 41.0 °F 39% 30.16 in 10.0 mi SW 10.4 mph - N/A   Scattered Clouds
3:35 PM 66.2 °F 42.4 °F 42% 30.15 in 10.0 mi SSW 10.4 mph - N/A   Scattered Clouds
3:55 PM 65.3 °F 41.9 °F 42% 30.14 in 10.0 mi SW 13.8 mph - N/A   Scattered Clouds
4:15 PM 65.1 °F 43.2 °F 45% 30.14 in 10.0 mi SW 13.8 mph 19.6 mph N/A   Overcast
4:35 PM 65.3 °F 43.9 °F 46% 30.14 in 10.0 mi SW 10.4 mph 16.1 mph N/A   Overcast
4:55 PM 65.3 °F 44.2 °F 46% 30.14 in 10.0 mi SW 11.5 mph 17.3 mph N/A   Overcast
5:15 PM 65.3 °F 43.9 °F 46% 30.14 in 10.0 mi SW 10.4 mph - N/A   Mostly Cloudy
5:35 PM 64.4 °F 44.4 °F 48% 30.14 in 10.0 mi WSW 10.4 mph - N/A   Mostly Cloudy
5:55 PM 64.2 °F 45.5 °F 51% 30.14 in 10.0 mi SW 9.2 mph - N/A   Overcast
6:15 PM 63.7 °F 45.7 °F 52% 30.12 in 10.0 mi South 8.1 mph - N/A   Mostly Cloudy
6:35 PM 63.5 °F 46.0 °F 53% 30.14 in 10.0 mi SW 5.8 mph - N/A   Clear
6:55 PM 63.9 °F 46.8 °F 54% 30.14 in 10.0 mi SW 5.8 mph - N/A   Clear
7:15 PM 62.8 °F 47.5 °F 57% 30.13 in 10.0 mi WSW 6.9 mph - N/A   Clear
7:35 PM 63.1 °F 46.6 °F 55% 30.13 in 10.0 mi SW 8.1 mph - N/A   Clear
7:55 PM 62.1 °F 46.4 °F 56% 30.13 in 10.0 mi SSW 3.5 mph - N/A   Clear
8:15 PM 61.2 °F 46.8 °F 59% 30.14 in 10.0 mi SW 4.6 mph - N/A   Clear
8:35 PM 59.2 °F 47.1 °F 64% 30.14 in 10.0 mi Calm Calm - N/A   Clear
8:55 PM 59.4 °F 47.1 °F 64% 30.14 in 10.0 mi WSW 3.5 mph - N/A   Clear
9:15 PM 57.2 °F 47.3 °F 69% 30.16 in 10.0 mi SW 4.6 mph - N/A   Clear
9:35 PM 56.7 °F 46.8 °F 69% 30.16 in 10.0 mi SW 3.5 mph - N/A   Clear
9:55 PM 57.4 °F 46.4 °F 67% 30.17 in 10.0 mi SW 4.6 mph - N/A   Scattered Clouds
10:15 PM 56.3 °F 46.6 °F 70% 30.17 in 10.0 mi Calm Calm - N/A   Scattered Clouds
10:35 PM 53.6 °F 47.5 °F 80% 30.18 in 10.0 mi Calm Calm - N/A   Clear
10:55 PM 55.4 °F 46.8 °F 73% 30.19 in 10.0 mi Calm Calm - N/A   Clear
11:15 PM 53.6 °F 47.3 °F 79% 30.19 in 10.0 mi West 3.5 mph - N/A   Clear
11:35 PM 54.7 °F 47.3 °F 76% 30.20 in 10.0 mi West 4.6 mph - N/A   Scattered Clouds